User: anonymous   Login
Location: Unspecified
(0.0000°N, 0.0000°E)
Time: 07:51:46
(UTC+00:00)
Language:

COSMOS-2409 - Orbit

View from above orbital plane
View from above orbital plane
View from above satellite
View from above satellite

Ground track
Ground track

The orbit data is extracted from the following two-line orbital elements,

1 28420U 04037B   17328.46306803 +.00000008 +00000-0 -99939-5 0  9994
2 28420 082.4811 126.3347 0012718 291.4886 068.4839 12.45271227598659
Epoch (UTC): 24 November 2017 11:06:49
Eccentricity: 0.0012718
inclination: 82.4811°
perigee height: 1474 km
apogee height: 1494 km
right ascension of ascending node: 126.3347°
argument of perigee: 291.4886°
revolutions per day: 12.45271227
mean anomaly at epoch: 68.4839°
orbit number at epoch: 59865

The dashed part of the orbit path shows where the satellite is in the earth's shadow,  

DLR